This is the latest recevied weather packets stored in our database for station/object DW9280. If no packets are shown the sender has not sent any weather packets the latest 10 day(s).
| Time | Temp. | Humidity | Pressure | Rain* | Wind** | Luminosity | Snow |
|---|---|---|---|---|---|---|---|
| 1787850248 | 28.33° C | 61% | 1008 hPa | 0 mm | - | 149 W/m² | - |
| 1787849947 | 28.33° C | 60% | 1008.1 hPa | 0 mm | - | 160 W/m² | - |
| 1787849646 | 28.33° C | 61% | 1008.1 hPa | 0 mm | - | 162 W/m² | - |
| 1787849382 | 28.33° C | 61% | 1008.1 hPa | 0 mm | - | 165 W/m² | - |
| 1787849172 | 28.33° C | 61% | 1008.3 hPa | 0 mm | - | 158 W/m² | - |
| 1787848748 | 28.33° C | 62% | 1008.3 hPa | 0 mm | - | 134 W/m² | - |
| 1787848444 | 28.33° C | 61% | 1008.3 hPa | 0 mm | - | 144 W/m² | - |
| 1787848139 | 28.33° C | 61% | 1008.2 hPa | 0 mm | - | 153 W/m² | - |
| 1787847834 | 28.33° C | 61% | 1008.3 hPa | 0 mm | - | 163 W/m² | - |
| 1787847533 | 28.33° C | 60% | 1008.3 hPa | 0 mm | - | 156 W/m² | - |
| 1787847228 | 28.33° C | 60% | 1008.4 hPa | 0 mm | - | 207 W/m² | - |
| 1787846917 | 28.33° C | 60% | 1008.6 hPa | 0 mm | - | 216 W/m² | - |
| 1787846616 | 28.33° C | 60% | 1008.6 hPa | 0 mm | - | 199 W/m² | - |
| 1787846317 | 28.33° C | 60% | 1008.7 hPa | 0 mm | - | 206 W/m² | - |
| 1787846016 | 28.33° C | 59% | 1008.7 hPa | 0 mm | - | 216 W/m² | - |
| 1787845719 | 28.33° C | 59% | 1008.8 hPa | 0 mm | - | 214 W/m² | - |
| 1787845416 | 28.33° C | 59% | 1008.9 hPa | 0 mm | - | 225 W/m² | - |
| 1787845115 | 28.89° C | 58% | 1008.9 hPa | 0 mm | - | 251 W/m² | - |
| 1787844941 | 28.89° C | 59% | 1008.9 hPa | 0 mm | - | 274 W/m² | - |
| 1787844519 | 28.89° C | 59% | 1008.9 hPa | 0 mm | - | 262 W/m² | - |
| 1787844214 | 28.89° C | 59% | 1008.9 hPa | 0 mm | - | 279 W/m² | - |
| 1787843917 | 28.89° C | 59% | 1008.9 hPa | 0 mm | - | 369 W/m² | - |
| 1787843739 | 28.89° C | 59% | 1008.9 hPa | 0 mm | - | 408 W/m² | - |
| 1787843312 | 28.89° C | 60% | 1009 hPa | 0 mm | - | 390 W/m² | - |
| 1787842705 | 28.89° C | 60% | 1009 hPa | 0 mm | - | 445 W/m² | - |
* Rain latest hour (hover to see other rain measurements)
** Current wind speed in m/s (hover to see current wind gust speed)